Location: �perlecques
(50.8057°N, 2.1521°E)
Time: 04:20:25
(UTC+00:00)

UNISAT 6 - Visible Passes

Search period start: 23 March 2023 00:00
Search period end: 02 April 2023 00:00
Orbit: 602 x 680 km, 97.7° (Epoch: 22 March)

Date Brightness Start Highest point End Pass type
(mag) Time Alt. Az. Time Alt. Az. Time Alt. Az.
23 Mar ? 03:17:30 10° ESE 03:20:48 21° ENE 03:24:09 10° NNE visible
23 Mar ? 04:52:45 10° S 04:57:00 55° W 05:01:24 10° NNW visible
24 Mar ? 03:40:32 10° SE 03:44:25 33° ENE 03:48:25 10° N visible
24 Mar ? 18:38:22 10° N 18:42:28 32° WNW 18:46:34 10° SW visible
25 Mar ? 04:03:53 10° SE 04:08:08 53° ENE 04:12:30 10° N visible
25 Mar ? 19:02:37 10° NNW 19:06:05 21° WNW 19:09:34 10° WSW visible
26 Mar ? 02:53:45 10° E 02:56:03 14° NE 02:58:22 10° NNE visible
26 Mar ? 04:27:32 10° SSE 04:31:55 87° ENE 04:36:26 10° NNW visible
26 Mar ? 19:27:11 10° NNW 19:29:38 14° NW 19:32:05 10° W visible
27 Mar ? 03:16:16 10° ESE 03:19:35 21° ENE 03:22:58 10° NNE visible
27 Mar ? 04:51:28 10° S 04:55:46 56° W 05:00:14 10° NNW visible
28 Mar ? 03:39:16 10° SE 03:43:11 32° ENE 03:47:13 10° N visible
29 Mar ? 04:02:35 10° SE 04:06:52 52° ENE 04:11:16 10° N visible
29 Mar ? 19:01:19 10° NNW 19:04:50 22° WNW 19:08:21 10° WSW visible
30 Mar ? 02:52:26 10° E 02:54:46 14° NE 02:57:07 10° NNE visible
30 Mar ? 04:26:12 10° SSE 04:30:37 86° ENE 04:35:10 10° NNW visible
30 Mar ? 19:25:51 10° NNW 19:28:21 15° NW 19:30:51 10° W visible
31 Mar ? 03:14:55 10° ESE 03:18:16 21° ENE 03:21:41 10° NNE visible
31 Mar ? 04:50:06 10° S 04:54:27 57° W 04:58:57 10° NNW visible
01 Apr ? 03:37:53 10° SE 03:41:51 32° ENE 03:45:55 10° N visible
